Stündliche Wetter Kzyl-Bolgar

Heute, 8 Mai, Samstag

Zeit Temperatur Niederschläge Wind Luftdruck Luftfeuchtigkeit
00:00 +12°C° 0 mm 2 m/S 748 mmHg 76%
01:00 +12°C° 0 mm 2 m/S 749 mmHg 79%
02:00 +11°C° 0 mm 1 m/S 749 mmHg 81%
03:00 +11°C° 0 mm 1 m/S 749 mmHg 84%
04:00 +11°C° 0.1 mm 1 m/S 749 mmHg 86%
05:00 +11°C° 0.1 mm 1 m/S 749 mmHg 88%
06:00 +10°C° 0.1 mm 0 m/S 749 mmHg 89%
07:00 +12°C° 0.4 mm 2 m/S 749 mmHg 84%
08:00 +12°C° 0.4 mm 3 m/S 750 mmHg 78%
09:00 +13°C° 0 mm 3 m/S 750 mmHg 72%
10:00 +14°C° 0.1 mm 3 m/S 749 mmHg 68%
11:00 +16°C° 0.1 mm 3 m/S 749 mmHg 64%
12:00 +16°C° 0.1 mm 3 m/S 749 mmHg 60%
13:00 +17°C° 0.2 mm 3 m/S 749 mmHg 59%
14:00 +17°C° 0.2 mm 3 m/S 749 mmHg 58%
15:00 +17°C° 0.2 mm 2 m/S 749 mmHg 57%
16:00 +17°C° 0 mm 2 m/S 749 mmHg 60%
17:00 +18°C° 0 mm 1 m/S 748 mmHg 63%
18:00 +15°C° 0 mm 0 m/S 748 mmHg 66%
19:00 +15°C° 0 mm 1 m/S 748 mmHg 69%
20:00 +14°C° 0 mm 2 m/S 748 mmHg 72%
21:00 +12°C° 0 mm 3 m/S 748 mmHg 75%
22:00 +11°C° 0 mm 3 m/S 748 mmHg 75%
23:00 +11°C° 0 mm 3 m/S 748 mmHg 75%

Morgen, 9 Mai, Sonntag

Zeit Temperatur Niederschläge Wind Luftdruck Luftfeuchtigkeit
00:00 +11°C° 0 mm 3 m/S 748 mmHg 74%
01:00 +10°C° 0 mm 4 m/S 748 mmHg 74%
02:00 +10°C° 0 mm 4 m/S 747 mmHg 74%
03:00 +10°C° 0 mm 4 m/S 747 mmHg 73%
04:00 +11°C° 0 mm 4 m/S 747 mmHg 72%
05:00 +11°C° 0 mm 4 m/S 747 mmHg 71%
06:00 +12°C° 0 mm 4 m/S 747 mmHg 70%
07:00 +14°C° 0 mm 5 m/S 747 mmHg 64%
08:00 +16°C° 0 mm 5 m/S 747 mmHg 57%
09:00 +19°C° 0 mm 5 m/S 747 mmHg 51%
10:00 +20°C° 0 mm 5 m/S 747 mmHg 48%
11:00 +21°C° 0 mm 6 m/S 747 mmHg 46%
12:00 +22°C° 0 mm 6 m/S 747 mmHg 43%
13:00 +22°C° 0 mm 6 m/S 747 mmHg 42%
14:00 +22°C° 0 mm 5 m/S 747 mmHg 41%
15:00 +23°C° 0 mm 5 m/S 747 mmHg 40%
16:00 +22°C° 0 mm 4 m/S 747 mmHg 46%
17:00 +21°C° 0 mm 3 m/S 747 mmHg 51%
18:00 +20°C° 0 mm 3 m/S 747 mmHg 57%
19:00 +19°C° 0 mm 3 m/S 748 mmHg 58%
20:00 +18°C° 0 mm 3 m/S 748 mmHg 59%
21:00 +17°C° 0 mm 3 m/S 748 mmHg 60%
22:00 +16°C° 0.1 mm 3 m/S 748 mmHg 62%
23:00 +14°C° 0.1 mm 3 m/S 748 mmHg 65%

übermorgen, 10 Mai, Montag

Zeit Temperatur Niederschläge Wind Luftdruck Luftfeuchtigkeit
00:00 +14°C° 0.1 mm 3 m/S 748 mmHg 68%
01:00 +14°C° 0 mm 3 m/S 748 mmHg 68%
02:00 +15°C° 0 mm 2 m/S 749 mmHg 67%
03:00 +15°C° 0 mm 2 m/S 749 mmHg 67%
04:00 +15°C° 0 mm 2 m/S 749 mmHg 67%
05:00 +15°C° 0 mm 2 m/S 750 mmHg 67%
06:00 +16°C° 0 mm 1 m/S 750 mmHg 67%
07:00 +18°C° 0 mm 1 m/S 750 mmHg 64%
08:00 +19°C° 0 mm 1 m/S 751 mmHg 60%
09:00 +20°C° 0 mm 1 m/S 751 mmHg 57%
10:00 +20°C° 0 mm 2 m/S 751 mmHg 56%
11:00 +21°C° 0 mm 2 m/S 752 mmHg 55%
12:00 +21°C° 0 mm 3 m/S 752 mmHg 54%
13:00 +21°C° 0.1 mm 3 m/S 752 mmHg 57%
14:00 +21°C° 0.1 mm 4 m/S 753 mmHg 59%
15:00 +21°C° 0.1 mm 5 m/S 753 mmHg 61%
16:00 +19°C° 0.2 mm 5 m/S 753 mmHg 67%
17:00 +16°C° 0.2 mm 6 m/S 754 mmHg 73%
18:00 +14°C° 0.2 mm 6 m/S 754 mmHg 79%
19:00 +13°C° 0.1 mm 6 m/S 755 mmHg 81%
20:00 +12°C° 0.1 mm 5 m/S 755 mmHg 82%
21:00 +11°C° 0.1 mm 4 m/S 756 mmHg 84%
22:00 +11°C° 0 mm 4 m/S 756 mmHg 85%
23:00 +9°C° 0 mm 5 m/S 756 mmHg 86%

11 Mai, Dienstag

Zeit Temperatur Niederschläge Wind Luftdruck Luftfeuchtigkeit
00:00 +9°C° 0 mm 5 m/S 756 mmHg 87%
01:00 +9°C° 0 mm 5 m/S 756 mmHg 89%
02:00 +8°C° 0 mm 5 m/S 757 mmHg 90%
03:00 +8°C° 0 mm 4 m/S 757 mmHg 91%
04:00 +8°C° 0 mm 4 m/S 757 mmHg 89%
05:00 +10°C° 0 mm 4 m/S 758 mmHg 88%
06:00 +10°C° 0 mm 4 m/S 758 mmHg 86%
07:00 +12°C° 0 mm 4 m/S 758 mmHg 80%
08:00 +13°C° 0 mm 4 m/S 759 mmHg 74%
09:00 +15°C° 0 mm 4 m/S 759 mmHg 68%
10:00 +17°C° 0 mm 4 m/S 759 mmHg 65%
11:00 +18°C° 0 mm 4 m/S 759 mmHg 61%
12:00 +19°C° 0 mm 3 m/S 759 mmHg 58%
13:00 +20°C° 0 mm 3 m/S 759 mmHg 56%
14:00 +20°C° 0 mm 3 m/S 759 mmHg 54%
15:00 +20°C° 0 mm 3 m/S 758 mmHg 52%
16:00 +20°C° 0 mm 3 m/S 759 mmHg 55%
17:00 +19°C° 0 mm 3 m/S 759 mmHg 57%
18:00 +18°C° 0 mm 3 m/S 759 mmHg 60%
19:00 +17°C° 0 mm 3 m/S 759 mmHg 62%
20:00 +14°C° 0 mm 3 m/S 759 mmHg 63%
21:00 +13°C° 0 mm 3 m/S 759 mmHg 65%
22:00 +12°C° 0 mm 3 m/S 759 mmHg 64%
23:00 +12°C° 0 mm 3 m/S 759 mmHg 62%

12 Mai, Mittwoch

Zeit Temperatur Niederschläge Wind Luftdruck Luftfeuchtigkeit
00:00 +11°C° 0 mm 3 m/S 759 mmHg 61%
01:00 +10°C° 0 mm 3 m/S 759 mmHg 61%
02:00 +10°C° 0 mm 3 m/S 759 mmHg 61%
03:00 +9°C° 0 mm 3 m/S 759 mmHg 60%
04:00 +10°C° 0 mm 3 m/S 760 mmHg 60%
05:00 +11°C° 0 mm 3 m/S 760 mmHg 60%
06:00 +11°C° 0 mm 3 m/S 760 mmHg 60%
07:00 +13°C° 0 mm 4 m/S 760 mmHg 56%
08:00 +15°C° 0 mm 4 m/S 760 mmHg 51%
09:00 +18°C° 0 mm 4 m/S 760 mmHg 46%
10:00 +19°C° 0 mm 4 m/S 760 mmHg 43%
11:00 +20°C° 0 mm 4 m/S 760 mmHg 40%
12:00 +21°C° 0 mm 4 m/S 759 mmHg 37%
13:00 +21°C° 0 mm 4 m/S 759 mmHg 36%
14:00 +21°C° 0 mm 4 m/S 759 mmHg 35%
15:00 +22°C° 0 mm 4 m/S 759 mmHg 34%
16:00 +21°C° 0 mm 4 m/S 759 mmHg 40%
17:00 +20°C° 0 mm 3 m/S 758 mmHg 46%
18:00 +19°C° 0 mm 3 m/S 758 mmHg 51%
19:00 +18°C° 0 mm 3 m/S 758 mmHg 56%
20:00 +17°C° 0 mm 3 m/S 758 mmHg 60%
21:00 +14°C° 0 mm 3 m/S 758 mmHg 64%
22:00 +14°C° 0 mm 3 m/S 758 mmHg 66%
23:00 +13°C° 0 mm 3 m/S 758 mmHg 69%

13 Mai, Donnerstag

Zeit Temperatur Niederschläge Wind Luftdruck Luftfeuchtigkeit
00:00 +13°C° 0 mm 3 m/S 758 mmHg 71%
01:00 +12°C° 0 mm 3 m/S 758 mmHg 73%
02:00 +12°C° 0 mm 3 m/S 758 mmHg 74%
03:00 +12°C° 0 mm 3 m/S 758 mmHg 75%
04:00 +12°C° 0 mm 3 m/S 758 mmHg 73%
05:00 +13°C° 0 mm 3 m/S 758 mmHg 72%
06:00 +14°C° 0 mm 3 m/S 758 mmHg 70%
07:00 +17°C° 0 mm 3 m/S 758 mmHg 64%
08:00 +19°C° 0 mm 4 m/S 758 mmHg 58%
09:00 +21°C° 0 mm 4 m/S 758 mmHg 52%
10:00 +22°C° 0 mm 4 m/S 758 mmHg 49%
11:00 +23°C° 0 mm 4 m/S 758 mmHg 46%
12:00 +25°C° 0 mm 4 m/S 757 mmHg 42%
13:00 +25°C° 0 mm 4 m/S 757 mmHg 40%
14:00 +26°C° 0 mm 4 m/S 757 mmHg 38%
15:00 +26°C° 0 mm 3 m/S 757 mmHg 36%
16:00 +26°C° 0 mm 3 m/S 757 mmHg 41%
17:00 +25°C° 0 mm 2 m/S 757 mmHg 45%
18:00 +24°C° 0 mm 1 m/S 757 mmHg 50%
19:00 +23°C° 0 mm 1 m/S 757 mmHg 52%
20:00 +20°C° 0 mm 2 m/S 757 mmHg 54%
21:00 +19°C° 0 mm 2 m/S 757 mmHg 56%
22:00 +19°C° 0 mm 2 m/S 757 mmHg 57%
23:00 +18°C° 0 mm 2 m/S 757 mmHg 59%
Mehr zeigen

Wir brauchen deine Erlaubnis

Meteoprog und unser Service Anbieter werden persönliche Daten aufbewahren, so wie Cookies, Geräte Bezeichnung oder ähnliche Technologien von deinem Gerät und Prozess, so wie Persönliche Daten Inhalte und Werbungen, genauso wie social Media und den Verkehr zu analysieren.

  • Aufbewahrung und/oder Zugang zu deiner Geräte Informationen.

    Cookies, Geräte Bezeichnung oder andere Informationen, können aufbewahrt oder Zugang zu deinem Gerät erhalten, für den Grund, der oben angegeben wird.

  • Personalisierte Werbung und Inhalte, Messungen, Einblick in das Publikum und Produkt Entwicklung.

    Werbungen und Inhalte können personalisiert werden, basierend auf ein Profil. Mehr Daten können besser personalisierte Werbungen und Inhalte hinzufügen. Werbung und Inhalte können gezeigt und gemessen werden. Einblicke über das Publikum, welche die Werbung gesehen haben und den Inhalt, können abgeleitet werden. So wie Daten können genutzt werden, um es zu verbessern oder die Benutzer Erfahrung zu verbessern das System und die Software.

Wenn du “Ich stimme zu” klickst, erlaubst du uns, die Cookies zu benutzen die Geräte Bezeichnung, den Web oder ähnliche Technologien zu benutzen. Deine Settings, können in deinem Gerät bei deinem Browser geändert werden.

Für den bestimmten Zweck, berechtigten Interessen beruhen darauf, mehr als auf den Inhalt. Du kannst mehr darüber in unseren Privaten und Cookie Politik lesen.